User: anonymous   Login
Location: 5810 Zion Rd, Cleves, OH 45002, USA
(39.1922°N, 84.7113°W)
Time: 17:14:44
(UTC-05:00)
Language:

NOAA 18 - Orbit

View from above orbital plane
View from above orbital plane
View from above satellite
View from above satellite

Ground track
Ground track

The orbit data is extracted from the following two-line orbital elements,

1 28654U 05018A   20028.55430359 +.00000064 +00000-0 +59410-4 0  9998
2 28654 099.0657 083.5290 0013366 267.3059 092.6583 14.12484618757024
Epoch (UTC): 28 January 2020 13:18:11
Eccentricity: 0.0013366
inclination: 99.0657°
perigee height: 841 km
apogee height: 860 km
right ascension of ascending node: 83.5290°
argument of perigee: 267.3059°
revolutions per day: 14.12484618
mean anomaly at epoch: 92.6583°
orbit number at epoch: 75702

The dashed part of the orbit path shows where the satellite is in the earth's shadow,  

DLR